This is the latest recevied weather packets stored in our database for station/object Hoechsten. If no packets are shown the sender has not sent any weather packets the latest 10 day(s).
| Time | Temp. | Humidity | Pressure | Rain* | Wind** | Luminosity | Snow |
|---|---|---|---|---|---|---|---|
| 1778103130 | 6.67° C | 59% | 1008 hPa | 7.11 mm | - | - | - |
| 1778101330 | 7.22° C | 60% | 1008 hPa | 7.11 mm | - | - | - |
| 1778099531 | 7.22° C | 60% | 1007.7 hPa | 7.11 mm | - | - | - |
| 1778097730 | 7.22° C | 60% | 1007.4 hPa | 7.11 mm | - | - | - |
| 1778095935 | 7.22° C | 60% | 1007.1 hPa | 7.11 mm | - | - | - |
| 1778094131 | 7.22° C | 60% | 1006.9 hPa | 7.11 mm | - | - | - |
| 1778092329 | 7.22° C | 60% | 1006.3 hPa | 7.11 mm | - | - | - |
| 1778090536 | 7.22° C | 61% | 1006.2 hPa | 7.11 mm | - | - | - |
| 1778088730 | 7.78° C | 61% | 1005.8 hPa | 7.11 mm | - | - | - |
| 1778086935 | 7.78° C | 61% | 1005.4 hPa | 7.11 mm | - | - | - |
| 1778085130 | 7.22° C | 62% | 1005.1 hPa | 7.11 mm | - | - | - |
| 1778083330 | 7.22° C | 63% | 1004.8 hPa | 7.11 mm | - | - | - |
| 1778081530 | 7.22° C | 64% | 1004.7 hPa | 7.11 mm | - | - | - |
| 1778079730 | 7.22° C | 66% | 1004.8 hPa | 6.86 mm | - | - | - |
| 1778077930 | 7.78° C | 69% | 1004.3 hPa | 2.29 mm | - | - | - |
| 1778076131 | 9.44° C | 75% | 1003.8 hPa | 0.51 mm | - | - | - |
| 1778074331 | 12.22° C | 76% | 1003.3 hPa | 0 mm | - | - | - |
| 1778072531 | 12.22° C | 76% | 1003.2 hPa | 0 mm | - | - | - |
| 1778070730 | 12.22° C | 76% | 1003 hPa | 0 mm | - | - | - |
| 1778068930 | 12.78° C | 76% | 1002.8 hPa | 0 mm | - | - | - |
| 1778067137 | 13.33° C | 75% | 1002.7 hPa | 0 mm | - | - | - |
| 1778065330 | 13.33° C | 76% | 1003 hPa | 0 mm | - | - | - |
| 1778061734 | 12.22° C | 76% | 1003.3 hPa | 0 mm | - | - | - |
| 1778059931 | 11.67° C | 76% | 1003.2 hPa | 0 mm | - | - | - |
| 1778058131 | 11.67° C | 76% | 1003.5 hPa | 0 mm | - | - | - |
* Rain since midnight (hover to see other rain measurements)
** Current wind speed in m/s (hover to see current wind gust speed)